Regional Weather Roundup
Issued by NWS

Home | Current Version | Previous Version | Graphics & Text | Print | Product List | Glossary On
Versions: 1 2 3 4 5 6 7 8 9 10 11 12 13 14 15 16 17 18 19 20 21 22 23 24 25 26 27 28 29 30 31 32 33 34 35 36 37 38 39 40 41 42 43 44 45 46 47 48 49 50
000
ASUS43 KTOP 281708
RWRKS

WEATHER ROUNDUP FOR KANSAS
NATIONAL WEATHER SERVICE GOODLAND KS
1200 PM CDT THU JUL 28 2016

NOTE:  "FAIR" INDICATES FEW OR NO CLOUDS BELOW 12,000 FEET WITH NO
SIGNIFICANT WEATHER AND/OR OBSTRUCTIONS TO VISIBILITY.

KSZ001>006-013>018-027>032-041>047-281800-
NORTHWEST KANSAS

CITY           SKY/WX    TMP DP  RH WIND       PRES   REMARKS
GOODLAND       CLOUDY    66  63  90 NE7       30.12F
HAYS           SUNNY     84  64  51 E10       30.03R
HILL CITY      SUNNY     85  65  51 VRB6      30.07R
RUSSELL        SUNNY     85  68  56 E14       30.00F
$$

KSZ061>065-074>080-084>089-281800-
SOUTHWEST KANSAS

CITY           SKY/WX    TMP DP  RH WIND       PRES   REMARKS
DODGE CITY     SUNNY     85  62  46 SE10      30.04S
ELKHART          N/A     83  60  45 MISG        N/A
GARDEN CITY    SUNNY     81  66  60 S8        30.05R
GREAT BEND     SUNNY     84  66  54 NE10      30.02S
LIBERAL        SUNNY     84  61  45 S8        30.08F
PRATT          SUNNY     81  61  50 NE8       30.02F
$$

KSZ066>073-081>083-090>101-281800-
SOUTHEAST KANSAS

CITY           SKY/WX    TMP DP  RH WIND       PRES   REMARKS
CHANUTE        CLOUDY    77  70  79 SW6       29.98F
COFFEYVILLE    MOSUNNY   85  68  56 N10G22    29.97R
HUTCHINSON     SUNNY     88  70  55 NE9       30.00S
MEDICINE LODGE   N/A     88  58  36 N5        29.99
NEWTON         SUNNY     84  73  69 E8        30.02R
PARSONS        LGT RAIN  78  72  81 N5        29.98F
WICHITA INTL   MOSUNNY   91  72  53 VRB5      29.98S HX  98
WICHITA JABRA  MOSUNNY   90  74  59 E6        29.99S HX  99
WINFIELD       SUNNY     90  70  51 SE6       29.99R HX  95
$$

KSZ007>012-019>026-033>040-048>060-102>105-281800-
NORTHEAST KANSAS

CITY           SKY/WX    TMP DP  RH WIND       PRES   REMARKS
CONCORDIA      SUNNY     85  67  54 VRB5      30.02F
EMPORIA        SUNNY     85  70  60 NE8       29.99R
LAWRENCE       SUNNY     86  71  60 N8        29.97S
MANHATTAN      SUNNY     86  69  56 N7        29.98F
MARYSVILLE     MOSUNNY   88  68  51 NW9       30.01F
OLATHE IND     MOSUNNY   86  70  58 NW10      29.99S
OLATHE EXE     MOSUNNY   87  68  52 VRB6      29.98S
SALINA         SUNNY     89  68  49 NE13      29.99F
TOPEKA BILLARD MOSUNNY   88  69  53 NE9       29.97F
TOPEKA FORBES  MOSUNNY   87  70  56 N8        29.98S
$$



USA.gov is the U.S. government's official web portal to all federal, state and local government web resources and services.